Location: Sternwarte_Laufen
(47.9344°N, 12.9346°E)
Time: 21:45:04
(UTC+02:00)

ISS - Pass Details

Date: 19 July 2018
Orbit: 402 x 408 km, 51.6° (Epoch: 17 July)

Event Time Altitude Azimuth Distance (km) Brightness Sun altitude
Rises 03:06:14 0° 290° (WNW) 2,331 0.0 -16.8°
Reaches altitude 10° 03:08:21 10° 295° (WNW) 1,470 -1.0 -16.6°
Maximum altitude 03:11:35 55° 14° (NNE) 498 -3.1 -16.4°
Drops below altitude 10° 03:14:50 10° 94° (E) 1,469 -0.7 -16.1°
Sets 03:16:57 0° 99° (E) 2,328 0.3 -15.9°
